This is the latest recevied weather packets stored in our database for station/object SP5MRF. If no packets are shown the sender has not sent any weather packets the latest 10 day(s).
| Time | Temp. | Humidity | Pressure | Rain* | Wind** | Luminosity | Snow |
|---|---|---|---|---|---|---|---|
| 1788181013 | 22.22° C | 68% | 1009.7 hPa | 0 mm | - | - | - |
| 1788180534 | 22.78° C | 66% | 1009.6 hPa | 0 mm | - | - | - |
| 1788180053 | 23.33° C | 64% | 1009.4 hPa | 0 mm | - | - | - |
| 1788179575 | 23.89° C | 61% | 1009.4 hPa | 0 mm | - | - | - |
| 1788179094 | 25° C | 59% | 1009.2 hPa | 0 mm | - | - | - |
| 1788178613 | 25.56° C | 56% | 1009.1 hPa | 0 mm | - | - | - |
| 1788178133 | 25.56° C | 55% | 1008.7 hPa | 0 mm | - | - | - |
| 1788177653 | 26.11° C | 55% | 1008.7 hPa | 0 mm | - | - | - |
| 1788177175 | 26.11° C | 53% | 1008.7 hPa | 0 mm | - | - | - |
| 1788175733 | 26.67° C | 50% | 1008.7 hPa | 0 mm | - | - | - |
| 1788174773 | 27.22° C | 50% | 1008.8 hPa | 0 mm | - | - | - |
| 1788174295 | 27.78° C | 50% | 1008.7 hPa | 0 mm | - | - | - |
| 1788173813 | 27.78° C | 50% | 1008.7 hPa | 0 mm | - | - | - |
| 1788173333 | 27.22° C | 51% | 1008.5 hPa | 0 mm | - | - | - |
| 1788172853 | 26.67° C | 50% | 1009 hPa | 0 mm | - | - | - |
| 1788172373 | 27.22° C | 49% | 1008.9 hPa | 0 mm | - | - | - |
| 1788171413 | 27.22° C | 48% | 1008.7 hPa | 0 mm | - | - | - |
| 1788170933 | 27.78° C | 48% | 1008.8 hPa | 0 mm | - | - | - |
| 1788170453 | 27.78° C | 49% | 1008.9 hPa | 0 mm | - | - | - |
| 1788169973 | 27.78° C | 51% | 1009 hPa | 0 mm | - | - | - |
| 1788169495 | 27.78° C | 51% | 1009.1 hPa | 0 mm | - | - | - |
| 1788169014 | 27.22° C | 52% | 1009 hPa | 0 mm | - | - | - |
| 1788168534 | 27.22° C | 53% | 1009.2 hPa | 0 mm | - | - | - |
| 1788168053 | 27.22° C | 55% | 1009.3 hPa | 0 mm | - | - | - |
| 1788167573 | 27.22° C | 56% | 1009.3 hPa | 0 mm | - | - | - |
* Rain latest hour (hover to see other rain measurements)
** Current wind speed in m/s (hover to see current wind gust speed)